Other Public Products
Issued by NWS Grand Forks, ND

Home | Current Version | Previous Version | Graphics & Text | Print | Product List | Glossary Off
Versions: 1 2 3 4 5 6 7 8 9 10 11 12 13 14 15 16 17 18 19 20 21 22 23 24 25 26 27 28 29 30 31 32 33 34 35 36 37 38 39 40 41 42 43 44 45 46 47 48 49 50

000
FPUS83 KFGF 241610
OPUFGF
PRAIRIE TO PINES WEATHER ROUNDUP
NATIONAL WEATHER SERVICE EASTERN NORTH DAKOTA/GRAND FORKS ND
1100 AM CDT WED MAY 24 2017

 **SATELLITE DATA USED TO AUGMENT SKY COVER AT AUTOMATED STATIONS**
 *****  WEATHER ACROSS EASTERN NORTH DAKOTA  *****

CITY           SKY/WX    TMP DP  RH WIND       PRES   REMARKS
GRAND FORKS    FAIR      62  43  49 SE12      29.77F
GRAND FORKS AF FAIR      61  43  52 SE13      29.77F
GRAND CITY NWS NOT AVBL
BUXTON         NOT AVBL
DEVILS LAKE    FAIR      57  42  57 SE17      29.74F
FARGO          FAIR      61  45  55 SE9       29.77F
WAHPETON ARPT  CLOUDY    55  43  62 E5        29.78F
$$

 *****  WEATHER ACROSS CENTRAL AND WESTERN NORTH DAKOTA  *****

CITY           SKY/WX    TMP DP  RH WIND       PRES   REMARKS
JAMESTOWN      PTSUNNY   56  43  61 SE16G22   29.74F
BISMARCK       FAIR      60  39  45 S17       29.69F
MINOT          FAIR      64  35  34 SE23G32   29.63F
MINOT AFB      FAIR      63  35  36 S30       29.61F
GARRISON         N/A     59  36  42 S21G26    29.65F
WILLISTON      FAIR      66  38  35 SE24G38   29.48F
DICKINSON      FAIR      60  34  37 SE26G37   29.57F
HETTINGER      FAIR      60  35  39 S21G30    29.63F
$$

 *****  OTHER OBSERVATIONS NORTHEAST NORTH DAKOTA  *****

CITY           SKY/WX    TMP DP  RH WIND       PRES   REMARKS
WALHALLA       NOT AVBL
LANGDON        FAIR      63  41  45 S23       29.74F
CAVALIER       FAIR      61  41  48 S17G25    29.75F
GRAFTON        FAIR      61  43  51 S16G22    29.79F
CANDO          NOT AVBL
FORT TOTTEN      N/A     58  42  54 S12       29.95S
ROLLA          FAIR      61  32  33 S21G32    29.70F
RUGBY          NOT AVBL
 ***** THE ABOVE OBSERVATIONS ARE NON NWS ARE NOT QUALITY
        CONTROLLED AND MAY MIS-REPORT RAIN FOR SNOW...
$$

 *****  OTHER OBSERVATIONS SOUTHEAST NORTH DAKOTA *****

CITY           SKY/WX    TMP DP  RH WIND       PRES   REMARKS
COOPERSTOWN    FAIR      59  45  58 S14G24    29.76F
VALLEY CITY    PTSUNNY   57  41  54 SE16      29.78F
OAKES          NOT AVBL
GWINNER        MOSUNNY   57  45  62 MISG      29.77F
SHEYENNE NWR     N/A     59  46  63 SE7       29.95S
BUFFALO        NOT AVBL
WYNDMERE         N/A     57  46  67 SE5         N/A
 ***** THE ABOVE OBSERVATIONS ARE NON NWS ARE NOT QUALITY
       CONTROLLED AND MAY MIS-REPORT RAIN FOR SNOW...
$$

  *****  WEATHER ACROSS NORTHERN MINNESOTA  *****

CITY           SKY/WX    TMP DP  RH WIND       PRES   REMARKS
FLAG ISLAND    FAIR      54  46  76 S6        29.80F
WARROAD        FAIR      61  45  55 NE8       29.81F
ROSEAU         FAIR      63  43  48 SE10G17   29.80F
HALLOCK        FAIR      64  39  39 S15G23    29.77F
THF RVR FALLS  FAIR      59  42  53 SE9       29.80F
HALSTAD          N/A     60  43  53 SE10        N/A
FOSSTON        FAIR      57  48  72 E6        29.80F
BAUDETTE       FAIR      62  40  44 E8        29.81F
WASKISH        CLOUDY    61  43  51 SE10      29.81F
CROOKSTON      FAIR      61  41  48 SE12      29.78F
$$
  *****  WEATHER ACROSS CENTRAL AND WEST MINNESOTA  *****

CITY           SKY/WX    TMP DP  RH WIND       PRES   REMARKS
BEMIDJI        FAIR      58  41  54 E10       29.80F
PARK RAPIDS    FAIR      58  39  49 VRB6      29.79F
WADENA         PTSUNNY   57  43  58 E8        29.79F
DETROIT LAKES  FAIR      57  41  54 SE13      29.79F
MOORHEAD       FAIR      59  45  58 S5        29.78F
FERGUS FALLS   PTSUNNY   57  43  58 CALM      29.77F
ELBOW LAKE     CLOUDY    55  46  71 NE5       29.79F
MORRIS MN      PTSUNNY   55  46  71 SE3       29.78F
STAPLES        PTSUNNY   54  39  58 NE8       29.79F
WHEATON        CLOUDY    55  46  71 SE5       29.80F
$$
  *****  WEATHER ELSEWHERE ACROSS MINNESOTA  *****

CITY           SKY/WX    TMP DP  RH WIND       PRES   REMARKS
DULUTH         PTSUNNY   55  45  68 E12G22    29.80F
INTRNTL FALLS  FAIR      61  36  39 VRB7      29.81F
ELY            PTSUNNY   57  39  51 E6        29.82F
CLOQUET        CLOUDY    52  43  71 E12G21    29.81F
BRAINERD       PTSUNNY   55  41  59 NE15G25   29.79F
HIBBING        PTSUNNY   55  39  54 E10       29.81F
ALEXANDRIA     CLOUDY    55  44  66 NE9       29.79F
SAINT CLOUD    CLOUDY    55  46  71 E7        29.77F
MINNEAPOLIS    PTSUNNY   56  45  66 NW9       29.76F
$$

  *****  WEATHER ACROSS SOUTH DAKOTA  *****

CITY           SKY/WX    TMP DP  RH WIND       PRES   REMARKS
SIOUX FALLS    PTSUNNY   56  48  74 NE5       29.78F
BROOKINGS      CLOUDY    54  45  71 E5        29.78F
WATERTOWN      CLOUDY    54  45  71 SE3       29.76F
HURON          PTSUNNY   55  44  66 SE6       29.77F
SISSETON         N/A     56  49  77 SE7       29.77F
ABERDEEN       CLOUDY    57  40  52 SE9       29.77F
MITCHELL       PTSUNNY   56  45  66 CALM      29.79F
PIERRE         FAIR      57  41  55 SE10      29.72F
MOBRIDGE       FAIR      58  40  51 SE16      29.69F
RAPID CITY     FAIR      60  40  47 S23       29.65F
$$

  *****  SOME WEATHER IN NEARBY STATES *****

CITY           SKY/WX    TMP DP  RH WIND       PRES   REMARKS
GLASGOW MT     FAIR      69  40  34 SE17      29.30F
GREAT FALLS MT FAIR      64  31  28 W33G45    29.45R
CHEYENNE WY    FAIR      68  36  30 W18G25    29.79F
SCOTTSBLUFF NE FAIR      61  42  49 E10       29.70F
OMAHA NE       FAIR      59  48  67 N12       29.75F
DES MOINES IA  CLOUDY    55  49  80 N12       29.69S
DAVENPORT IA   CLOUDY    57  50  77 N15       29.62S
CHICAGO IL     CLOUDY    56  50  80 NE18      29.57F
EAU CLAIRE WI  PTSUNNY   58  45  62 NE9       29.72F
LA CROSSE WI   CLOUDY    55  49  80 N8        29.71S
$$

  *****  SOME NATIONAL WEATHER *****

CITY           SKY/WX    TMP DP  RH WIND       PRES   REMARKS
LA GUARDIA NY  PTSUNNY   65  54  67 NE10      29.75F
RALEIGH NC     DRIZZLE   69  66  90 S6        29.69S
ATLANTA GA     PTSUNNY   73  65  75 SW16G23   29.56F
NEW ORLEANS LA FAIR      72  56  57 NW12      29.73R
OKLAHOMA CITY  FAIR      63  42  46 NW15G24   29.84F
ALBUQUERQUE NM FAIR      64  32  30 W7        30.05F
SALT LAKE CITY FAIR      77  38  24 S12G20    29.81F
LOS ANGELES CA CLOUDY    59  56  89 SW7       29.90S FOG
BOISE ID       FAIR      65  39  38 NW18      29.80S
SEATTLE WA     PTSUNNY   52  41  66 S13       30.06F
$$

*** WEATHER ACROSS MANITOBA...SASKATCHEWAN AND ONTARIO ***
                ***ONTARIO***

CITY           SKY/WX    TMP DP  RH WIND       PRES   REMARKS
GERALDTON      MOSUNNY   55  30  38 N9        29.86F
THUNDER BAY    MOSUNNY   59  37  44 SE12      29.84F
SIOUX LOOKOUT  MOSUNNY   61  39  44 VRB2      29.83F
TORONTO        PTSUNNY   68  52  56 E7        29.67F
BIG TROUT LK   SUNNY     59  30  33 S7        29.82F
PICKLE LAKE    SUNNY     61  30  31 VRB7      29.85F
DRYDEN         SUNNY     61  36  39 VRB6      29.82F
KENORA         MOSUNNY   59  37  44 SW3       29.81F
$$
                *** MANITOBA***

CITY           SKY/WX    TMP DP  RH WIND       PRES   REMARKS
BRANDON        PTSUNNY   64  36  34 S21G31    29.64F
DAUPHIN        SUNNY     68  36  30 SW20G30   29.58F
ISLAND LAKE    MOSUNNY   68  32  26 SW12G22   29.69F
PILOT MOUND      N/A     63  36  36 S24G30      N/A
THE PAS        MOSUNNY   72  37  28 MISG      29.43F
THOMPSON       PTSUNNY   66  41  39 S8G17     29.49F
WINNIPEG       MOSUNNY   66  39  37 S16G23    29.73F
LYNN LAKE      MOSUNNY   61  45  55 E5        29.39F
CHURCHILL      PTSUNNY   48  37  66 S16G23    29.44F
GILLAM         PTSUNNY   64  37  36 S16       29.54F
$$
                ***SASKATCHEWAN***

CITY           SKY/WX    TMP DP  RH WIND       PRES   REMARKS
ESTEVAN        MOSUNNY   63  36  36 S33G48    29.48F
KINDERSLEY     MOSUNNY   63  41  45 NW5       29.07F
LLOYDMINSTER   PTSUNNY   57  50  77 W13G21    29.01R
PRINCE ALBERT  LGT RAIN  57  46  67 SE13      29.21F
REGINA         MOSUNNY   68  37  32 SE35G48   29.32F
YORKTON          N/A     64  34  32 S24G41    29.46F



USA.gov is the U.S. government's official web portal to all federal, state and local government web resources and services.